Home > Weather > Wheaton > Past weeks

Flag for USA Past Weather in Wheaton, Illinois, USA — Yesterday and Last 2 Weeks

Now
57 °F

Clear.


Feels Like: 57 °F
Forecast: 55 / 78 °F
Wind: No wind

Location: Dupage Airport

Current Time: Jun 29, 2016 at 12:38:33 AM

Latest Report: Jun 28, 2016 at 11:52 PM


Visibility: 10 mi

Pressure: 30.13 "Hg

Humidity: 78%

Dew Point: 50 °F

Location of WheatonLocation

Past Weather in Wheaton — Graph

°F

Wheaton Temperature Yesterday

Maximum temperature yesterday: 72 °F (at 5:52 PM)
Minimum temperature yesterday: 58 °F (at 10:52 PM)
Average temperature yesterday: 66 °F

High & Low Weather Summary for the Past Weeks

 TemperatureHumidityPressure
High91 °F (Jun 20, 4:52 PM)94% (Jun 23, 3:59 AM)30.23 "Hg (Jun 23, 3:59 AM)
Low57 °F (Jun 18, 4:52 AM)30% (Jun 18, 2:52 PM)29.68 "Hg (Jun 15, 8:52 PM)
Average74 °F64%29.98 "Hg
* Reported Jun 13 10:52 PM — Jun 28 10:52 PM, Wheaton, Weather by CustomWeather, © 2016

Note: Actual official high and low records may vary slightly from our data, if they occured in-between our weather recording intervals... More about our weather records

Advertising

Wheaton Weather History for the Previous 24 Hours

Scroll right to see more
 ConditionsComfort  
Time TempWeatherWind HumidityBarometerVisibility
10:52 PM
Tue, Jun 28
58 °FClear.No wind75%30.12 "Hg10 mi
9:52 PM60 °FClear.No wind69%30.13 "Hg10 mi
8:52 PM62 °FSunny.7 mph65%30.12 "Hg10 mi
7:52 PM68 °FSunny.No wind45%30.11 "Hg10 mi
6:52 PM71 °FSunny.6 mph35%30.12 "Hg10 mi
5:52 PM72 °FSunny.5 mph35%30.13 "Hg10 mi
4:52 PM71 °FPartly sunny.7 mph45%30.14 "Hg10 mi
3:52 PM69 °FOvercast.5 mph53%30.15 "Hg10 mi
2:52 PM67 °FPartly sunny.5 mph57%30.16 "Hg10 mi
1:52 PM67 °FPartly sunny.12 mph59%30.17 "Hg10 mi
12:52 PM66 °FOvercast.10 mph61%30.17 "Hg10 mi
11:52 AM66 °FMostly cloudy.10 mph65%30.17 "Hg10 mi
10:52 AM67 °FOvercast.10 mph63%30.16 "Hg10 mi
9:52 AM67 °FPartly sunny.8 mph63%30.15 "Hg10 mi
8:52 AM66 °FMore clouds than sun.12 mph68%30.15 "Hg10 mi
7:52 AM65 °FPassing clouds.7 mph73%30.14 "Hg10 mi
6:59 AM63 °FPartly sunny.9 mph75%30.15 "Hg10 mi
6:02 AM63 °FPartly cloudy.7 mph81%30.14 "Hg10 mi
4:52 AM61 °FPassing clouds.5 mph83%30.11 "Hg10 mi
3:52 AM63 °FPassing clouds.8 mph81%30.09 "Hg10 mi
2:52 AM64 °FPassing clouds.9 mph75%30.08 "Hg10 mi
1:52 AM67 °FPassing clouds.6 mph73%30.07 "Hg10 mi
12:52 AM66 °FPartly cloudy.6 mph73%30.08 "Hg10 mi
Weather by CustomWeather, © 2016

See weather overviewHow to use our weather pages